Other Public Products
Issued by NWS Grand Forks, ND

Home | Current Version | Previous Version | Graphics & Text | Print | Product List | Glossary On
Versions: 1 2 3 4 5 6 7 8 9 10 11 12 13 14 15 16 17 18 19 20 21 22 23 24 25 26 27 28 29 30 31 32 33 34 35 36 37 38 39 40 41 42 43 44 45 46 47 48 49 50
000
FPUS83 KFGF 031110
OPUFGF
PRAIRIE TO PINES WEATHER ROUNDUP
NATIONAL WEATHER SERVICE EASTERN NORTH DAKOTA/GRAND FORKS ND
600 AM CDT SUN MAY 03 2015

 **SATELLITE DATA USED TO AUGMENT SKY COVER AT AUTOMATED STATIONS**
 *****  WEATHER ACROSS EASTERN NORTH DAKOTA  *****

CITY           SKY/WX    TMP DP  RH WIND       PRES   REMARKS
GRAND FORKS    PTCLDY    46  40  79 NW8       29.75R
GRAND FORKS AF PTCLDY    49  39  69 NW10      29.75R
GRAND CITY NWS   N/A     45 N/A N/A NW12        N/A
BUXTON         NOT AVBL
DEVILS LAKE    MOCLDY    48  37  66 NW10      29.80R
FARGO          CLEAR     50  41  71 N13       29.73R
WAHPETON ARPT  SUNNY     54  48  82 N8        29.72R
$$

 *****  WEATHER ACROSS CENTRAL AND WESTERN NORTH DAKOTA  *****

CITY           SKY/WX    TMP DP  RH WIND       PRES   REMARKS
JAMESTOWN      MOCLDY    52  37  56 NW13      29.79R
BISMARCK       LGT RAIN  53  40  61 NW14      29.88R
MINOT          LGT RAIN  48  36  63 W13       29.88R
MINOT AFB      MOCLDY    47  37  69 NW14      29.88R
GARRISON         N/A     49  38  65 NW14      29.90R
WILLISTON      PTCLDY    40  32  73 CALM      29.94R
DICKINSON      CLOUDY    49  36  61 NW5       29.93R
HETTINGER      MOCLDY    49  36  61 N12       29.91R
$$

 *****  OTHER OBSERVATIONS NORTHEAST NORTH DAKOTA  *****

CITY           SKY/WX    TMP DP  RH WIND       PRES   REMARKS
WALHALLA       FAIR      48  37  66 W12       29.76R
LANGDON        FAIR      45  37  76 NW16      29.78R
CAVALIER       FAIR      46  37  71 NW9       29.75R
GRAFTON        FAIR      50  41  71 W10       29.76R
CANDO          PTSUNNY   45  36  70 NW10      29.82R
FORT TOTTEN      N/A     49  38  66 NW6       29.95S
ROLLA          NOT AVBL
RUGBY          NOT AVBL
 ***** THE ABOVE OBSERVATIONS ARE NON NWS ARE NOT QUALITY
        CONTROLLED AND MAY MIS-REPORT RAIN FOR SNOW...
$$

 *****  OTHER OBSERVATIONS SOUTHEAST NORTH DAKOTA *****

CITY           SKY/WX    TMP DP  RH WIND       PRES   REMARKS
COOPERSTOWN    NOT AVBL
VALLEY CITY    PTSUNNY   50  39  66 NW10      29.77R
OAKES            N/A     50  39  66 N10       29.75R
GWINNER        SUNNY     54  37  54 N13       29.74R
SHEYENNE NWR     N/A     52  42  69 N3        29.95S
BUFFALO        NOT AVBL
WYNDMERE       NOT AVBL
 ***** THE ABOVE OBSERVATIONS ARE NON NWS ARE NOT QUALITY
       CONTROLLED AND MAY MIS-REPORT RAIN FOR SNOW...
$$

  *****  WEATHER ACROSS NORTHERN MINNESOTA  *****

CITY           SKY/WX    TMP DP  RH WIND       PRES   REMARKS
FLAG ISLAND    PTCLDY    50  43  76 NW13      29.66R
WARROAD        MOCLDY    48  43  81 W6        29.69R
ROSEAU         MOCLDY    46  39  76 CALM      29.71R
HALLOCK        PTCLDY    45  37  76 NW9       29.73R
THF RVR FALLS  PTCLDY    45  41  87 W3        29.72R
HALSTAD        NOT AVBL
FOSSTON        NOT AVBL
BAUDETTE       PTCLDY    45  41  86 W7        29.67R
WASKISH        PTCLDY    54  48  82 CALM      29.69R
CROOKSTON      MOCLDY    43  39  87 NW6       29.74R
$$
  *****  WEATHER ACROSS CENTRAL AND WEST MINNESOTA  *****

CITY           SKY/WX    TMP DP  RH WIND       PRES   REMARKS
BEMIDJI        PTCLDY    54  47  77 W7        29.71R
PARK RAPIDS    CLEAR     54  48  80 NW5       29.70R
WADENA         FAIR      54  48  82 SW3       29.70R
DETROIT LAKES  CLEAR     57  50  77 NW8       29.73R
MOORHEAD       CLEAR     46  43  87 CALM      29.74R
FERGUS FALLS   CLEAR     55  50  82 W3        29.72R
ELBOW LAKE     FAIR      57  53  86 SE6       29.69S
MORRIS MN      PTCLDY    57  54  88 SE10      29.69S
STAPLES        PTCLDY    52  48  87 S3        29.70R
WHEATON        CLEAR     54  50  87 SE6       29.71R
$$
  *****  WEATHER ELSEWHERE ACROSS MINNESOTA  *****

CITY           SKY/WX    TMP DP  RH WIND       PRES   REMARKS
DULUTH         CLOUDY    61  49  64 S10       29.68F
INTRNTL FALLS  PTCLDY    43  40  89 SW3       29.66R
ELY            MOCLDY    55  45  67 SW5       29.68R
CLOQUET        CLOUDY    61  50  67 S10G17    29.70R
BRAINERD       PTCLDY    54  50  86 S5        29.70F
HIBBING        MOCLDY    44  39  82 CALM      29.68R
ALEXANDRIA     PTCLDY    58  54  86 S8        29.71F
SAINT CLOUD    CLOUDY    57  54  89 SE7       29.73F
MINNEAPOLIS    MOCLDY    57  50  77 SE5       29.78S
$$

  *****  WEATHER ACROSS SOUTH DAKOTA  *****

CITY           SKY/WX    TMP DP  RH WIND       PRES   REMARKS
SIOUX FALLS    PTCLDY    57  52  83 SW3       29.69F
BROOKINGS      PTCLDY    57  54  88 SE8       29.71S
WATERTOWN      CLEAR     54  51  90 S5        29.69R
HURON          CLEAR     57  53  86 CALM      29.67R
SISSETON         N/A     51  49  92 S3        29.69R
ABERDEEN       CLEAR     51  42  71 N15       29.72R
MITCHELL       PTCLDY    60  54  80 S8        29.68F
PIERRE         PTCLDY    52  33  48 N18       29.72R
MOBRIDGE       CLEAR     55  38  52 N18G26    29.77R
RAPID CITY     PTCLDY    51  31  46 N23G31    29.83R
$$

  *****  SOME WEATHER IN NEARBY STATES *****

CITY           SKY/WX    TMP DP  RH WIND       PRES   REMARKS
GLASGOW MT     MOCLDY    38  30  73 NW7       29.98R
GREAT FALLS MT CLEAR     34  25  69 CALM      30.00F
CHEYENNE WY    MOCLDY    53  33  46 NW10      29.93R
SCOTTSBLUFF NE CLEAR     50  41  71 N9        29.82R
OMAHA NE       MOCLDY    61  56  83 S14       29.74F
DES MOINES IA  CLOUDY    61  56  83 S12       29.76F
DAVENPORT IA   LGT RAIN  60  53  77 S14       29.90F
CHICAGO IL     CLOUDY    60  42  51 S7        29.97R
EAU CLAIRE WI  CLEAR     58  48  69 SW6       29.79S
LA CROSSE WI   PTCLDY    62  51  67 S14       29.81F
$$

  *****  SOME NATIONAL WEATHER *****

CITY           SKY/WX    TMP DP  RH WIND       PRES   REMARKS
LA GUARDIA NY  MOSUNNY   52  36  54 SW6       30.07R
RALEIGH NC     PTCLDY    48  47  96 CALM      30.16R
ATLANTA GA     CLEAR     57  48  72 W3        30.12R
NEW ORLEANS LA PTCLDY    65  59  81 SE3       30.06S
OKLAHOMA CITY  MOCLDY    64  53  67 S17G23    29.91F
ALBUQUERQUE NM MOCLDY    57  35  43 CALM      30.05S
SALT LAKE CITY CLOUDY    61  40  45 N10       29.88R
LOS ANGELES CA CLOUDY    58  53  84 N3        29.89S
BOISE ID       PTCLDY    52  34  50 CALM      29.84F
SEATTLE WA     CLEAR     48  38  68 NE6       30.01S
$$

*** WEATHER ACROSS MANITOBA...SASKATCHEWAN AND ONTARIO ***
                ***ONTARIO***

CITY           SKY/WX    TMP DP  RH WIND       PRES   REMARKS
GERALDTON      MOCLDY    46  39  76 S3        29.67F
THUNDER BAY    LGT RAIN  37  37 100 W5        29.70R
SIOUX LOOKOUT  PTCLDY    50  46  87 SW5       29.61R
TORONTO        MOCLDY    54  41  62 S3        30.02R
BIG TROUT LK   MOCLDY    39  39 100 NW10      29.48R
PICKLE LAKE    PTCLDY    50  45  81 SW10      29.53
DRYDEN         CLEAR     50  48  93 W7        29.62R
KENORA         PTCLDY    48  39  71 NW10      29.67R
$$
                *** MANITOBA***

CITY           SKY/WX    TMP DP  RH WIND       PRES   REMARKS
BRANDON        PTCLDY    39  36  87 W12       29.80R
DAUPHIN        CLEAR     43  39  87 W15G21    29.74R
ISLAND LAKE    PTCLDY    39  37  93 SW2       29.60R
PILOT MOUND      N/A     43  37  81 NW10        N/A
THE PAS        LGT RAIN  37  36  93 NW9       29.70R
THOMPSON       NOT AVBL
WINNIPEG       MOCLDY    36  32  87 NW7       29.75R
LYNN LAKE      CLOUDY    27  25  93 N7        29.80R WCI  19
CHURCHILL      CLOUDY    23  21  93 N18G26    29.77R WCI   9
GILLAM         CLOUDY    27  23  86 N23       29.70R WCI  12
$$
                ***SASKATCHEWAN***

CITY           SKY/WX    TMP DP  RH WIND       PRES   REMARKS
ESTEVAN        PTCLDY    34  32  93 W8        29.91R
KINDERSLEY     CLEAR     30  28  93 W8        29.99R WCI  23
LLOYDMINSTER   CLEAR     30  30 100 W12       29.96R WCI  21
PRINCE ALBERT  MOCLDY    37  34  87 NW10      29.87R
REGINA         CLEAR     32  30  93 W13       29.92R WCI  22


USA.gov is the U.S. government's official web portal to all federal, state and local government web resources and services.